Laredo, TX

11:34 AM CDT on August 23, 2017 (GMT -0500)
Laredo International

Weather History for KLRD - March, 2013

Change the Weather History Date:

Monday, March 25, 2013

  Actual Average Record
Temperature  
Mean Temperature 57 °F 71 °F  
Max Temperature 68 °F 82 °F 100 °F (1995)
Min Temperature 46 °F 59 °F 35 °F (1930)
Degree Days  
Heating Degree Days 8 1  
Month to date heating degree days 30 63  
Since 1 July heating degree days 506 907  
Cooling Degree Days 0 7  
Month to date cooling degree days 167 127  
Year to date cooling degree days 321 212  
Growing Degree Days 6 (Base 50)    
Moisture  
Dew Point 19 °F    
Average Humidity 24    
Maximum Humidity 40    
Minimum Humidity 13    
Precipitation  
Precipitation 0.00 in 0.04 in 1.00 in (1919)
Month to date precipitation T 0.95  
Year to date precipitation 0.75 2.79  
Sea Level Pressure  
Sea Level Pressure 30.23 in    
Wind  
Wind Speed 9 mph (East)    
Max Wind Speed 18 mph    
Max Gust Speed 25 mph    
Visibility 10 miles    
Events      
T = Trace of Precipitation, MM = Missing Value Source: NWS Daily Summary

Daily Weather History Graph

Daily Weather History Graph

Search for Another Location

Airport or City:

Trip Planner

Search our weather history database for the weather conditions in past years. The results will help you decide how hot, cold, wet, or windy it might be!

Date:

Astronomy

Mar. 25, 2013 Rise Set
Actual Time 7:35 AM CDT 7:51 PM CDT
Civil Twilight 7:12 AM CDT 8:15 PM CDT
Nautical Twilight 6:45 AM CDT 8:42 PM CDT
Astronomical Twilight 6:17 AM CDT 9:10 PM CDT
Moon 6:29 PM CDT (3/25) 6:12 AM CDT (3/25)
Length of Visible Light 13h 02m
Length of Day
12h 16m
Waxing Gibbous, 96% of the Moon is Illuminated
Mar 25
Waxing Gibbous
Mar 27
Full
Apr 2
Last Quarter
Apr 10
New
Apr 18
First Quarter

Hourly Weather History & Observations

Time (CDT) Temp. Windchill Dew Point Humidity Pressure Visibility Wind Dir Wind Speed Gust Speed Precip Events Conditions
12:56 AM 54.9 °F - 17.1 °F 23% 30.11 in 10.0 mi ENE 12.7 mph - N/A   Clear
1:56 AM 52.9 °F - 18.1 °F 26% 30.12 in 10.0 mi ENE 12.7 mph - N/A   Clear
2:56 AM 50.9 °F - 19.0 °F 28% 30.14 in 10.0 mi ENE 12.7 mph - N/A   Clear
3:56 AM 48.9 °F - 21.0 °F 33% 30.15 in 10.0 mi ENE 12.7 mph - N/A   Clear
4:56 AM 47.8 °F - 22.1 °F 36% 30.15 in 10.0 mi ENE 11.5 mph - N/A   Clear
5:56 AM 46.9 °F - 22.1 °F 38% 30.17 in 10.0 mi East 10.4 mph - N/A   Unknown
6:56 AM 46.9 °F - 23.0 °F 39% 30.21 in 10.0 mi East 9.2 mph - N/A   Clear
7:56 AM 45.9 °F 43.6 °F 23.0 °F 41% 30.26 in 10.0 mi East 4.6 mph - N/A   Unknown
8:56 AM 48.9 °F - 23.0 °F 36% 30.30 in 10.0 mi ENE 8.1 mph - N/A   Clear
9:56 AM 52.9 °F - 23.0 °F 31% 30.33 in 10.0 mi East 15.0 mph - N/A   Clear
10:56 AM 54.9 °F - 21.0 °F 27% 30.34 in 10.0 mi East 15.0 mph 18.4 mph N/A   Clear
11:56 AM 59.0 °F - 20.1 °F 22% 30.32 in 10.0 mi East 15.0 mph 18.4 mph N/A   Clear
12:56 PM 61.9 °F - 19.0 °F 19% 30.30 in 10.0 mi East 10.4 mph 18.4 mph N/A   Clear
1:56 PM 63.0 °F - 18.1 °F 18% 30.27 in 10.0 mi Variable 6.9 mph - N/A   Clear
2:56 PM 64.9 °F - 15.1 °F 15% 30.23 in 10.0 mi SE 10.4 mph - N/A   Clear
3:56 PM 65.8 °F - 14.0 °F 13% 30.21 in 10.0 mi South 6.9 mph - N/A   Clear
4:56 PM 66.9 °F - 14.0 °F 13% 30.19 in 10.0 mi Variable 3.5 mph - N/A   Clear
5:56 PM 66.9 °F - 14.0 °F 13% 30.18 in 10.0 mi Variable 3.5 mph - N/A   Clear
6:56 PM 65.8 °F - 14.0 °F 13% 30.19 in 10.0 mi East 5.8 mph - N/A   Clear
7:56 PM 64.9 °F - 16.2 °F 15% 30.21 in 10.0 mi ESE 6.9 mph - N/A   Clear
8:56 PM 61.9 °F - 14.0 °F 15% 30.25 in 10.0 mi ENE 8.1 mph - N/A   Clear
9:56 PM 59.0 °F - 14.0 °F 17% 30.27 in 10.0 mi ENE 5.8 mph - N/A   Clear
10:56 PM 56.8 °F - 22.1 °F 26% 30.32 in 10.0 mi East 9.2 mph - N/A   Clear
11:56 PM 54.9 °F - 22.1 °F 28% 30.33 in 10.0 mi ESE 10.4 mph - N/A   Clear